Stampede Pass, WA

12:15 AM PDT on May 01, 2017 (GMT -0700)
Stampede Pass

Weather History for KSMP - May, 2011

Change the Weather History Date:

Thursday, May 26, 2011

  Actual Average Record
Temperature  
Mean Temperature 36 °F -  
Max Temperature 41 °F 50 °F 73 °F (2005)
Min Temperature 35 °F 36 °F 32 °F (1998)
Degree Days  
Heating Degree Days 29    
Moisture  
Dew Point 35 °F    
Average Humidity 94    
Maximum Humidity 100    
Minimum Humidity 89    
Precipitation  
Precipitation 0.03 in - - ()
Sea Level Pressure  
Sea Level Pressure 29.89 in    
Wind  
Wind Speed 4 mph (West)    
Max Wind Speed 8 mph    
Max Gust Speed -    
Visibility 9 miles    
Events      
Averages and records for this station are not official NWS values.
T = Trace of Precipitation, MM = Missing Value Source: NWS Daily Summary

Daily Weather History Graph

Daily Weather History Graph

Search for Another Location

Airport or City:

Trip Planner

Search our weather history database for the weather conditions in past years. The results will help you decide how hot, cold, wet, or windy it might be!

Date:

Astronomy

May. 26, 2011 Rise Set
Actual Time 5:17 AM PDT 8:47 PM PDT
Civil Twilight 4:39 AM PDT 9:25 PM PDT
Nautical Twilight 3:49 AM PDT 10:16 PM PDT
Astronomical Twilight 2:42 AM PDT 11:24 PM PDT
Moon 2:06 AM PDT (5/26) 2:53 PM PDT (5/26)
Length of Visible Light 16h 46m
Length of Day
15h 30m
Waning Crescent, 31% of the Moon is Illuminated
May 26
Waning Crescent
Jun 1
New
Jun 8
First Quarter
Jun 15
Full
Jun 23
Last Quarter

Hourly Weather History & Observations

Time (PDT) Temp. Windchill Dew Point Humidity Pressure Visibility Wind Dir Wind Speed Gust Speed Precip Events Conditions
4:36 PM 35.6 °F 30.7 °F 35.6 °F 100% 29.88 in 5.0 mi Variable 5.8 mph - N/A   Overcast
4:45 PM 35.6 °F 30.7 °F 35.6 °F 100% 29.88 in 5.0 mi Variable 5.8 mph - 0.01 in   Overcast
4:56 PM 37.0 °F 32.4 °F 35.1 °F 93% 29.94 in 10.0 mi Variable 5.8 mph - 0.02 in   Overcast
5:13 PM 37.4 °F 33.8 °F 35.6 °F 93% 29.88 in 10.0 mi Variable 4.6 mph - N/A   Overcast
5:20 PM 37.4 °F 32.8 °F 35.6 °F 93% 29.88 in 10.0 mi Variable 5.8 mph - N/A   Overcast
5:56 PM 37.0 °F 32.4 °F 35.1 °F 93% 29.94 in 8.0 mi West 5.8 mph - 0.00 in   Overcast
6:07 PM 37.4 °F 31.4 °F 35.6 °F 93% 29.88 in 4.0 mi West 8.1 mph - 0.00 in   Overcast
6:22 PM 37.4 °F 32.1 °F 35.6 °F 93% 29.88 in 10.0 mi West 6.9 mph - 0.00 in   Overcast
6:37 PM 37.4 °F 34.9 °F 35.6 °F 93% 29.88 in 10.0 mi Variable 3.5 mph - 0.00 in   Overcast
6:56 PM 37.0 °F 33.3 °F 34.0 °F 89% 29.94 in 10.0 mi Variable 4.6 mph - 0.00 in   Overcast
7:56 PM 36.0 °F 33.3 °F 34.0 °F 93% 29.93 in 8.0 mi Variable 3.5 mph - N/A   Overcast
8:22 PM 35.6 °F 29.9 °F 33.8 °F 93% 29.87 in 6.0 mi Variable 6.9 mph - N/A   Overcast
8:56 PM 36.0 °F - 34.0 °F 93% 29.93 in - Calm Calm - N/A   Overcast
9:16 PM 35.6 °F - 35.6 °F 100% 29.87 in 6.0 mi Calm Calm - 0.00 in   Overcast
9:28 PM 35.6 °F - 33.8 °F 93% 29.88 in 10.0 mi Calm Calm - 0.01 in   Overcast
9:43 PM 35.6 °F - 33.8 °F 93% 29.88 in 10.0 mi Calm Calm - 0.01 in   Overcast
9:56 PM 35.1 °F - 34.0 °F 96% 29.93 in 10.0 mi Calm Calm - 0.01 in   Overcast
10:13 PM 35.6 °F - 33.8 °F 93% 29.88 in 10.0 mi Calm Calm - N/A   Overcast
10:52 PM 35.6 °F - 33.8 °F 93% 29.87 in 10.0 mi Calm Calm - N/A   Overcast
10:56 PM 36.0 °F - 34.0 °F 93% 29.92 in 10.0 mi Calm Calm - N/A   Overcast
11:27 PM 35.6 °F - 33.8 °F 93% 29.86 in 10.0 mi Calm Calm - N/A   Mostly Cloudy
11:37 PM 35.6 °F - 33.8 °F 93% 29.86 in 10.0 mi Calm Calm - N/A   Mostly Cloudy
11:56 PM 35.1 °F - 34.0 °F 96% 29.91 in - Calm Calm - N/A   Overcast